Weather History for KBLH - February, 2012

Change the Weather History Date:

Friday, February 3, 2012

  Actual Average Record
Temperature  
Mean Temperature 56 °F -  
Max Temperature 66 °F 67 °F 81 °F (1995)
Min Temperature 46 °F 43 °F 24 °F (1972)
Degree Days  
Heating Degree Days 9    
Growing Degree Days 6 (Base 50)    
Moisture  
Dew Point 19 °F    
Average Humidity 24    
Maximum Humidity 32    
Minimum Humidity 17    
Precipitation  
Precipitation 0.00 in - - ()
Sea Level Pressure  
Sea Level Pressure 30.05 in    
Wind  
Wind Speed 8 mph (NNW)    
Max Wind Speed 16 mph    
Max Gust Speed 23 mph    
Visibility 10 miles    
Events      
Averages and records for this station are not official NWS values.
T = Trace of Precipitation, MM = Missing Value Source: NWS Daily Summary

Daily Weather History Graph

Daily Weather History Graph

Search for Another Location

Airport or City:

Trip Planner

Search our weather history database for the weather conditions in past years. The results will help you decide how hot, cold, wet, or windy it might be!

Date:

Astronomy

Feb. 03, 2012 Rise Set
Actual Time 6:34 AM PST 5:11 PM PST
Civil Twilight 6:08 AM PST 5:37 PM PST
Nautical Twilight 5:38 AM PST 6:07 PM PST
Astronomical Twilight 5:09 AM PST 6:36 PM PST
Moon 1:22 PM PST 3:07 AM PST
Length of Visible Light 11h 29m
Length of Day
10h 37m
Waxing Gibbous, 82% of the Moon is Illuminated
Feb 3
Waxing Gibbous
Feb 7
Full
Feb 14
Last Quarter
Feb 21
New
Feb 29
First Quarter

Hourly Weather History & Observations

Time (PST) Temp. Dew Point Humidity Pressure Visibility Wind Dir Wind Speed Gust Speed Precip Events Conditions
12:52 AM 52.0 °F 12.9 °F 21% 30.01 in 10.0 mi Calm Calm - N/A   Clear
1:52 AM 50.0 °F 12.9 °F 23% 30.01 in 10.0 mi North 10.4 mph - N/A   Clear
2:52 AM 51.1 °F 17.1 °F 26% 30.01 in 10.0 mi North 10.4 mph - N/A   Clear
3:52 AM 48.9 °F 18.0 °F 29% 30.02 in 10.0 mi WNW 8.1 mph - N/A   Clear
4:52 AM 48.0 °F 14.0 °F 26% 30.02 in 10.0 mi SSW 5.8 mph - N/A   Clear
5:52 AM 46.9 °F 18.0 °F 32% 30.05 in 10.0 mi NNW 11.5 mph - N/A   Clear
6:52 AM 46.9 °F 19.0 °F 33% 30.06 in 10.0 mi NNW 13.8 mph - N/A   Clear
7:52 AM 53.1 °F 19.9 °F 27% 30.07 in 10.0 mi NNW 11.5 mph - N/A   Clear
8:52 AM 57.9 °F 19.9 °F 23% 30.09 in 10.0 mi North 16.1 mph - N/A   Clear
9:52 AM 61.0 °F 19.9 °F 21% 30.10 in 10.0 mi NNW 13.8 mph - N/A   Clear
10:52 AM 63.0 °F 21.0 °F 20% 30.09 in 10.0 mi North 16.1 mph 23.0 mph N/A   Clear
11:52 AM 64.0 °F 21.0 °F 19% 30.07 in 10.0 mi NNW 12.7 mph 21.9 mph N/A   Clear
12:52 PM 66.9 °F 21.0 °F 17% 30.04 in 10.0 mi NNW 13.8 mph - N/A   Clear
1:52 PM 66.9 °F 21.0 °F 17% 30.03 in 10.0 mi NNW 11.5 mph 18.4 mph N/A   Clear
2:52 PM 66.9 °F 21.0 °F 17% 30.03 in 10.0 mi Calm Calm - N/A   Clear
3:52 PM 66.9 °F 21.0 °F 17% 30.02 in 10.0 mi North 10.4 mph - N/A   Clear
4:52 PM 66.0 °F 21.0 °F 18% 30.02 in 10.0 mi North 5.8 mph - N/A   Clear
5:52 PM 60.1 °F 25.0 °F 26% 30.03 in 10.0 mi East 4.6 mph - N/A   Clear
6:52 PM 55.9 °F 25.0 °F 30% 30.04 in 10.0 mi Variable 5.8 mph - N/A   Clear
7:52 PM 55.9 °F 19.9 °F 25% 30.05 in 10.0 mi NNW 4.6 mph - N/A   Clear
8:52 PM 52.0 °F 19.0 °F 27% 30.06 in 10.0 mi North 5.8 mph - N/A   Clear
9:52 PM 51.1 °F 18.0 °F 27% 30.06 in 10.0 mi NW 6.9 mph - N/A   Clear
10:52 PM 52.0 °F 19.0 °F 27% 30.06 in 10.0 mi NW 3.5 mph - N/A   Clear
11:52 PM 50.0 °F 19.0 °F 29% 30.06 in 10.0 mi Variable 3.5 mph - N/A   Clear